Location: Borovka
(49.7741°N, 14.5280°E)
Time: 03:30:24
(UTC+00:00)

ESTCUBE 1 - Pass Details

Date: 17 March 2026
Orbit: 620 x 631 km, 97.7° (Epoch: 13 April)

Event Time Altitude Azimuth Distance (km) Brightness Sun altitude
Exits shadow 19:22:16 60° 93° (E) 725 ? -21.5°
Maximum altitude 19:22:33 61° 72° (ENE) 714 ? -21.6°
Drops below altitude 10° 19:26:53 10° 353° (N) 2,019 ? -22.2°
Sets 19:29:07 0° 350° (N) 2,933 ? -22.5°
